Lewisville's Hourly Summary for Thursday, March 16, 2017
Hour Temp
(f)
RH
(%)
Solar Rad.
(MJ/m2)
Rainfall
(in)
Wind
(mph)
3/16/2017 12:00 AM 56 58 0 0 4
3/16/2017 1:00 AM 55 60 0 0 6.38
3/16/2017 2:00 AM 55 62 0 0 7.25
3/16/2017 3:00 AM 54 66 0 0 8.48
3/16/2017 4:00 AM 53 71 0 0 8.67
3/16/2017 5:00 AM 53 76 0 0 8.55
3/16/2017 6:00 AM 54 83 0 0 7.95
3/16/2017 7:00 AM 56 86 0 0 9.22
3/16/2017 8:00 AM 57 87 0.01 0 7.65
3/16/2017 9:00 AM 58 86 0.11 0 8.63
3/16/2017 10:00 AM 59 83 0.4 0 10.2
3/16/2017 11:00 AM 60 83 0.42 0 9.83
3/16/2017 12:00 PM 61 81 0.42 0 9.42
3/16/2017 1:00 PM 61 80 0.5 0 8.52
3/16/2017 2:00 PM 64 75 0.77 0 9.93
3/16/2017 3:00 PM 66 73 0.75 0 10.64
3/16/2017 4:00 PM 68 68 0.91 0 12.42
3/16/2017 5:00 PM 70 65 1.05 0 13.38
3/16/2017 6:00 PM 70 66 0.51 0 12.64
3/16/2017 7:00 PM 71 63 0.34 0 12.38
3/16/2017 8:00 PM 70 65 0.04 0 12.22
3/16/2017 9:00 PM 70 69 0 0 9.91
3/16/2017 10:00 PM 69 70 0 0 8.36
3/16/2017 11:00 PM 68 73 0 0 8.74
Data Summary 61 72 6.23 0.00 9.39